This demonstration page uses our WeatherBlox Daily Observations layout. Learn more.

Left ArrowRight Arrow

34.74481, -87.66753

Hourly Observations for August 16, 2022

Temp ( °F °C ) Dew Point ( °F °C ) Humidity (%) Winds ( mph kmh ) Pressure ( in mb ) Visibility ( mi km ) Precip ( " mm )
12:53 am 00:53 Clear 76 24.4 67 19.4 74 74 NNE 8 13 29.91 1013 10 16 0.00 0.00
1:43 am 01:43 Mostly Clear 75 23.9 68 20 79 79 NE 9 15 29.90 1013 10 16 0.00 0.00
1:53 am 01:53 Clear 75 23.9 68 20 79 79 NE 6 9 29.90 1012 10 16 0.00 0.00
2:53 am 02:53 Clear 73 22.8 67 19.4 81 81 Calm 29.89 1012 10 16 0.00 0.00
3:53 am 03:53 Clear 71 21.7 67 19.4 87 87 Calm 29.89 1012 10 16 0.00 0.00
4:53 am 04:53 Clear 71 21.7 68 20 90 90 Calm 29.89 1012 9 14 0.00 0.00
5:53 am 05:53 Clear with Mist and Fog 69 20.6 67 19.4 93 93 Calm 29.91 1013 6 10 0.00 0.00
6:53 am 06:53 Sunny with Mist and Fog 70 21.1 68 20 93 93 Calm 29.93 1014 6 10 0.00 0.00
7:53 am 07:53 Sunny with Mist and Fog 72 22.2 69 20.6 91 91 Calm 29.93 1014 6 10 0.00 0.00
8:53 am 08:53 Cloudy 76 24.4 70 21.1 82 82 Calm 29.96 1014 7 11 0.00 0.00
9:53 am 09:53 Mostly Sunny 79 26.1 68 20 69 69 E 6 9 29.96 1014 10 16 0.00 0.00
10:53 am 10:53 Mostly Cloudy 81 27.2 67 19.4 62 62 Calm 29.96 1015 10 16 0.00 0.00
11:53 am 11:53 Cloudy 80 26.7 68 20 67 67 VRB 5 7 29.98 1015 10 16 0.00 0.00
12:53 pm 12:53 Mostly Cloudy 80 26.7 68 20 67 67 N 8 13 30.00 1016 10 16 0.00 0.00
1:53 pm 13:53 Partly Cloudy 80 26.7 67 19.4 64 64 ENE 8 13 29.96 1015 10 16 0.00 0.00
2:53 pm 14:53 Cloudy with Light Rain 76 24.4 68 20 77 77 NE 8 13 29.97 1015 7 11 0.01 0.13
3:53 pm 15:53 Partly Cloudy 78 25.6 67 19.4 69 69 N 8 13 29.96 1015 10 16 0.01 0.13
4:53 pm 16:53 Sunny 80 26.7 67 19.4 64 64 N 8 13 29.93 1014 10 16 0.00 0.00
5:53 pm 17:53 Mostly Sunny 78 25.6 68 20 71 71 NE 5 7 29.94 1014 10 16 0.00 0.00
6:53 pm 18:53 Mostly Cloudy 77 25 68 20 74 74 Calm 29.96 1015 10 16 0.00 0.00
7:53 pm 19:53 Mostly Clear 75 23.9 68 20 79 79 N 5 7 29.96 1015 10 16 0.00 0.00
8:53 pm 20:53 Partly Cloudy 75 23.9 68 20 79 79 NNE 3 6 29.96 1015 10 16 0.00 0.00
9:53 pm 21:53 Partly Cloudy 75 23.9 68 20 79 79 NNE 3 6 29.98 1015 10 16 0.00 0.00
10:53 pm 22:53 Mostly Cloudy 74 23.3 66 18.9 76 76 VRB 3 6 29.97 1015 10 16 0.00 0.00
11:53 pm 23:53 Mostly Cloudy 73 22.8 68 20 84 84 NNE 5 7 29.96 1015 10 16 0.00 0.00

Powered by AerisWeather